AirNav   Duncan Aviation - Near you to keep you flying
 
 843 users online  

2TN4 Shoemaker-Shelby Forest Airport
Millington, Tennessee, USA

GOING TO MILLINGTON?


FAA INFORMATION EFFECTIVE 11 AUGUST 2022

Location

FAA Identifier: 2TN4
Lat/Long: 35-19-05.0000N 090-02-07.0000W
35-19.083333N 090-02.116667W
35.3180556,-90.0352778
(estimated)
Elevation: 335 ft. / 102 m (estimated)
Variation: 01E (1995)
From city: 8 miles SW of MILLINGTON, TN
Time zone: UTC -5 (UTC -6 during Standard Time)
Zip code: 38053

Airport Operations

Airport use: Private use. Permission required prior to landing
Activation date: 03/1999
Control tower: no
ARTCC: MEMPHIS CENTER
FSS: JACKSON FLIGHT SERVICE STATION
Attendance: UNATNDD
Wind indicator: yes
Segmented circle: no

Airport Communications

WX AWOS-AV at 2M8 (6 nm SE): 122.8 (901-873-0903)
WX AWOS-AV at M01 (7 nm S): 122.7 ((901) 354-9296)
WX AWOS-3 at NQA (8 nm E): 118.925 (901-873-3630)
WX ASOS at AWM (15 nm SW): 118.175 (870-733-9987)
WX ASOS at MEM (17 nm S): 127.75 (901-842-8483)

Nearby radio navigation aids

VOR radial/distance  VOR name  Freq  Var
MEMr351/18.4MEMPHIS VORTAC117.5001E
GQEr091/21.7GILMORE VOR/DME113.0004E

Airport Services

Runway Information

Runway 16/34

Dimensions: 2785 x 40 ft. / 849 x 12 m
Surface: concrete
RUNWAY 16  RUNWAY 34
Traffic pattern: leftleft
Obstructions: 50 ft. trees, 2600 ft. from runway50 ft. trees, 2600 ft. from runway

Airport Ownership and Management from official FAA records

Ownership: Privately-owned
Owner: JAMES O'FARRELL SHOEMAKER
847 CHASER DRIVE
MILLINGTON, TN 38053
Phone 901-357-6151
Manager: JAMES O'FARRELL SHOEMAKER
847 CHASER DRIVE
MILLINGTON, TN 38053
Phone 901-357-6151

Airport Operational Statistics

Aircraft based on the field: 9
Single engine airplanes: 4
Multi engine airplanes: 1
Jet airplanes: 3
Ultralights: 1
    

Additional Remarks

FOR CD CTC MEMPHIS APCH AT 901-842-8457.

Instrument Procedures

There are no published instrument procedures at 2TN4.

Some nearby airports with instrument procedures:

2M8 - Charles W Baker Airport (6 nm SE)
M01 - General Dewitt Spain Airport (7 nm S)
KNQA - Millington/Memphis Airport (8 nm E)
KAWM - West Memphis Municipal Airport (15 nm SW)
KMEM - Memphis International Airport (17 nm S)
 
Loc | Ops | Rwys | IFR | FBO | Links
Com | Nav | Svcs | Stats | Notes
Area around 2TN4 (Shoemaker-Shelby Forest Airport)
 
Road maps at: MapQuest Bing Google
 
Aerial photo
No photo
 
Sectional chart

 
Airport distance calculator
Flying to Shoemaker-Shelby Forest Airport? Find the distance to fly.

From to 2TN4

Sunrise and sunset
Times for 16-Aug-2022
 Local
(UTC-5)
 Zulu
(UTC)
Morning civil twilight05:5510:55
Sunrise06:2111:21
Sunset19:4700:47
Evening civil twilight20:1401:14

Current date and time
Zulu (UTC)  17-Aug-2022 04:47:32
Local (UTC-5)  16-Aug-2022 23:47:32
 
METAR
KNQA 
8nm E 
170350Z 05004KT 10SM BKN110 22/20 A2999
KAWM 
15nm SW 
170353Z AUTO 06008KT 10SM SCT095 BKN120 23/19 A2998 RMK AO2 SLP147 T02330189
KMEM 
15nm S 
170354Z 07008KT 10SM FEW014 SCT090 BKN130 OVC180 24/20 A2999 RMK AO2 SLP152 T02440200
TAF
KMEM 
15nm S 
170259Z 1703/1806 05010KT P6SM VCSH SCT015 BKN120 FM170700 05005KT P6SM -SHRA VCTS SCT025CB OVC045 FM171200 06005KT 4SM -RA BR OVC015 FM171500 07005KT 6SM -SHRA BR OVC009 FM172000 06007KT P6SM BKN015 OVC030 FM180100 03004KT P6SM SCT040 BKN080
NOTAMs
Click for the latest NOTAMs
NOTAMs are issued by the DoD/FAA and will open in a separate window not controlled by AirNav.

 

 
 

Would you like to see your business listed on this page?

 If your business provides an interesting product or service to pilots, flight crews, aircraft, or users of the Shoemaker-Shelby Forest Airport, you should consider listing it here.  To start the listing process, click on the button below
 
Add a business
 

Other Pages about Shoemaker-Shelby Forest Airport

Update a link
 
Copyright © AirNav, LLC. All rights reserved. Privacy Policy  Contact